SCP
-0 -0 -0 -0 -0 -0 -0 -0 -0 -0 -0 -0 -0 -0 -0 -0 -0 0 0 0 0 0 0 0 0 0 -0 -0 -0 -0 -0 -0
-0 -0 -0 -0 -0 -0 -0 -0 -0 -0 -0 -0 -0 -0 -0 0 0 0 0 0 0 0 -0 0 0 -0 -0 -0 -0 -0 -0 -0
-0 -0 -0 -0 -0 -0 -0 -0 -0 -0 -0 -0 0 0 0 0 0 0 0 0 0 0 0 -0 -0 -0 -0 -0 -0 -0 -0 -0
0 0 -0 -0 -0 0 -0 -0 -0 -0 0 0 0 0 0 0 0 0 0 0 0 0 0 0 0 -0 -0 -0 -0 -0 -0 -0
0 0 0 0 0 -0 -0 0 0 0 0 0 0 0 0 0 0 0 0 0 0 0 0 0 0 0 0 0 0 -0 -0 -0
0 0 0 0 0 0 0 0 0 0 0 0 0 0 0 0 0 0 0 0 0 0 0 0 0 0 0 0 0 0 0 -0
0 0 -0 -0 0 0 0 0 0 0 0 0 0 0 0 0 0 0 0 0 0 0 0 0 0 0 0 0 0 0 0 0
0 0 -0 -0 -0 -0 -0 0 0 0 0 0 0 0 0 0 0 0 0 0 0 0 0 0 0 0 0 0 0 0 0 0
0 0 0 0 0 -0 0 0 0 0 0 0 0 1 1 0 0 0 0 0 0 0 0 0 0 0 0 0 0 0 0 0
0 0 0 0 0 0 0 0 0 0 1 1 1 1 0 0 0 0 0 0 0 0 1 1 1 0 0 0 0 0 0 0
0 0 0 0 1 1 1 1 1 1 1 1 1 1 0 0 1 0 0 0 0 0 1 1 1 1 1 1 1 1 0 0
0 0 1 1 1 1 1 1 1 1 1 1 1 1 1 1 1 0 0 0 0 1 0 1 1 1 1 1 1 1 1 1
0 0 1 1 1 1 1 2 2 1 1 1 1 1 1 1 1 1 1 1 1 1 1 1 1 1 1 1 1 1 1 1
0 0 1 1 1 1 2 2 2 2 2 2 2 2 1 1 1 1 1 1 2 1 1 1 1 1 1 1 1 1 1 1
0 0 0 1 1 1 2 2 2 2 2 2 2 1 1 1 1 1 1 1 2 1 1 1 1 1 1 1 1 1 1 1
0 0 0 0 1 2 2 2 1 1 2 2 2 2 1 1 1 1 1 1 1 1 1 1 1 1 2 2 2 1 1 1
0 0 0 0 1 2 1 1 1 1 1 2 2 2 2 1 2 1 1 1 1 1 1 1 1 2 1 2 2 1 1 1
0 0 0 0 1 2 1 2 2 2 2 2 3 2 1 1 1 0 0 0 0 0 0 0 1 1 1 1 3 2 1 0
0 0 0 0 1 2 2 2 2 2 2 1 1 1 0 0 0 0 0 0 0 0 0 0 0 1 1 1 1 2 2 2
Wind_Speed_500mb
38 39 40 38 37 35 35 32 32 30 27 25 23 24 26 29 31 26 22 17 14 11 11 13 12 11 11 13 12 10 9 7
38 37 42 40 37 34 32 30 29 27 25 24 24 25 27 30 29 24 20 16 12 10 11 12 11 9 9 9 9 9 8 5
38 38 42 40 37 33 31 28 24 23 24 24 25 26 28 28 25 22 18 14 12 12 12 13 13 12 11 11 11 11 12 10
37 37 41 41 39 35 32 28 23 22 22 23 24 26 27 27 25 21 18 15 13 13 14 16 16 16 15 15 16 16 16 16
36 36 38 43 41 39 36 31 26 24 23 23 24 25 26 26 25 22 19 18 16 16 16 17 17 17 16 17 19 19 19 19
37 37 36 38 38 38 35 36 32 28 26 26 27 28 28 27 26 25 24 21 19 18 17 17 18 18 20 21 21 24 25 20
39 38 37 38 39 38 34 36 39 36 34 32 32 31 29 24 23 21 24 22 21 21 20 21 20 22 22 20 21 25 26 24
37 38 39 41 41 40 36 34 36 34 33 36 36 34 32 26 26 26 20 24 25 24 22 23 23 26 22 22 22 23 24 26
36 37 39 40 45 45 36 36 34 35 35 33 36 40 36 34 31 27 23 22 24 22 22 25 22 26 28 31 31 28 29 29
36 38 40 41 45 47 52 37 38 37 36 32 32 38 38 32 30 27 26 25 25 24 25 25 25 26 28 31 33 34 39 40
34 37 38 40 40 46 50 50 39 38 36 34 32 33 37 34 31 28 29 28 27 27 28 28 29 30 31 31 34 41 50 46
34 34 39 41 44 47 48 51 47 37 36 34 34 35 35 33 36 30 28 27 25 25 29 30 33 34 36 35 41 45 49 52
30 32 33 36 42 50 56 54 44 39 37 34 32 31 34 30 29 27 27 26 24 24 26 26 28 29 31 31 36 36 37 42
41 36 35 38 42 49 53 48 43 41 39 34 34 33 34 32 30 31 27 26 29 23 26 27 30 29 31 33 36 37 37 39
45 43 44 40 40 46 44 46 39 39 37 36 35 32 34 33 31 32 31 32 35 23 24 27 32 31 33 36 38 43 42 41
48 50 48 43 41 43 39 38 39 42 39 38 36 35 36 35 31 33 28 25 27 26 28 30 31 34 37 37 43 47 48 48
47 49 53 53 50 51 40 32 29 30 32 33 31 34 35 35 34 28 24 22 23 20 30 32 35 39 39 40 46 46 52 53
46 52 57 60 58 55 42 38 38 29 31 34 34 35 42 34 28 22 19 18 27 29 22 29 28 32 36 37 41 39 44 51
22 29 47 57 55 55 54 46 44 40 38 34 34 29 33 28 22 19 18 22 24 19 26 26 27 33 33 37 38 43 51 51
Wind_Direction_500mb
161 165 171 174 175 174 171 175 178 182 186 189 192 187 180 172 168 166 163 161 162 162 165 165 163 158 150 148 146 141 134 132
163 165 173 175 177 177 176 180 183 189 192 192 188 183 176 171 171 171 170 170 171 174 178 180 178 172 167 167 175 186 194 199
165 166 178 178 179 181 181 184 187 192 191 186 183 180 175 174 176 178 179 182 184 188 191 194 198 196 194 197 204 216 227 227
167 166 180 182 183 185 185 187 186 189 189 184 181 179 179 179 182 186 192 198 200 203 203 206 211 214 219 218 221 230 241 248
172 174 177 185 188 190 190 190 189 190 190 189 186 185 186 188 193 199 206 212 215 218 224 227 226 231 236 250 256 249 249 258
177 181 180 183 186 188 194 196 194 195 194 194 194 195 197 201 206 213 217 219 224 228 234 243 254 251 255 254 258 268 273 269
180 184 187 187 190 188 194 200 201 203 203 202 202 203 203 200 208 206 226 229 234 236 236 243 238 251 257 261 275 269 272 267
184 186 190 192 196 191 196 200 199 203 203 207 211 212 206 210 221 221 224 236 240 244 251 253 257 256 249 245 249 254 258 263
187 192 195 200 206 203 200 206 206 206 207 207 211 219 214 219 222 215 220 225 233 233 240 244 246 246 254 267 264 260 263 261
194 197 200 202 213 215 212 211 208 212 215 213 211 222 222 221 223 227 228 228 235 240 244 246 253 254 263 268 266 266 265 265
204 206 208 215 222 223 224 218 216 215 215 210 216 219 228 227 226 226 234 236 239 244 245 248 253 254 260 258 260 263 267 266
214 212 215 223 229 233 233 232 225 220 216 218 217 221 229 231 231 227 226 227 232 240 246 249 253 259 261 262 263 261 265 265
208 216 213 218 226 238 238 235 223 223 223 219 218 222 230 224 222 224 225 233 231 237 245 250 253 257 261 262 263 259 260 265
223 219 219 223 229 238 240 230 225 223 220 219 218 219 226 223 222 223 228 232 239 246 248 250 254 256 262 267 268 271 265 264
228 225 225 227 228 230 230 231 223 224 223 219 220 215 221 222 229 236 238 241 250 250 254 258 256 257 261 263 266 268 269 267
226 224 227 223 225 227 224 217 218 219 218 217 214 214 217 228 236 237 238 248 250 249 256 255 267 274 269 269 273 273 274 272
226 230 226 222 227 229 227 218 208 208 212 209 205 212 216 228 231 231 229 233 239 249 271 271 272 273 271 267 264 274 276 274
226 232 224 219 225 228 217 218 223 192 189 192 199 208 220 227 228 221 243 248 269 271 264 275 277 273 276 272 274 263 277 273
229 229 221 220 227 228 226 219 218 212 194 198 203 201 221 217 218 237 254 263 270 258 261 277 283 273 273 275 273 271 264 267
Wind_Speed_850mb
38 39 40 38 37 35 35 32 32 30 27 25 23 24 26 29 31 26 22 17 14 11 11 13 12 11 11 13 12 10 9 7
38 37 42 40 37 34 32 30 29 27 25 24 24 25 27 30 29 24 20 16 12 10 11 12 11 9 9 9 9 9 8 5
38 38 42 40 37 33 31 28 24 23 24 24 25 26 28 28 25 22 18 14 12 12 12 13 13 12 11 11 11 11 12 10
37 37 41 41 39 35 32 28 23 22 22 23 24 26 27 27 25 21 18 15 13 13 14 16 16 16 15 15 16 16 16 16
36 36 38 43 41 39 36 31 26 24 23 23 24 25 26 26 25 22 19 18 16 16 16 17 17 17 16 17 19 19 19 19
37 37 36 38 38 38 35 36 32 28 26 26 27 28 28 27 26 25 24 21 19 18 17 17 18 18 20 21 21 24 25 20
39 38 37 38 39 38 34 36 39 36 34 32 32 31 29 24 23 21 24 22 21 21 20 21 20 22 22 20 21 25 26 24
37 38 39 41 41 40 36 34 36 34 33 36 36 34 32 26 26 26 20 24 25 24 22 23 23 26 22 22 22 23 24 26
36 37 39 40 45 45 36 36 34 35 35 33 36 40 36 34 31 27 23 22 24 22 22 25 22 26 28 31 31 28 29 29
36 38 40 41 45 47 52 37 38 37 36 32 32 38 38 32 30 27 26 25 25 24 25 25 25 26 28 31 33 34 39 40
34 37 38 40 40 46 50 50 39 38 36 34 32 33 37 34 31 28 29 28 27 27 28 28 29 30 31 31 34 41 50 46
34 34 39 41 44 47 48 51 47 37 36 34 34 35 35 33 36 30 28 27 25 25 29 30 33 34 36 35 41 45 49 52
30 32 33 36 42 50 56 54 44 39 37 34 32 31 34 30 29 27 27 26 24 24 26 26 28 29 31 31 36 36 37 42
41 36 35 38 42 49 53 48 43 41 39 34 34 33 34 32 30 31 27 26 29 23 26 27 30 29 31 33 36 37 37 39
45 43 44 40 40 46 44 46 39 39 37 36 35 32 34 33 31 32 31 32 35 23 24 27 32 31 33 36 38 43 42 41
48 50 48 43 41 43 39 38 39 42 39 38 36 35 36 35 31 33 28 25 27 26 28 30 31 34 37 37 43 47 48 48
47 49 53 53 50 51 40 32 29 30 32 33 31 34 35 35 34 28 24 22 23 20 30 32 35 39 39 40 46 46 52 53
46 52 57 60 58 55 42 38 38 29 31 34 34 35 42 34 28 22 19 18 27 29 22 29 28 32 36 37 41 39 44 51
22 29 47 57 55 55 54 46 44 40 38 34 34 29 33 28 22 19 18 22 24 19 26 26 27 33 33 37 38 43 51 51
Wind_Direction_850mb
161 165 171 174 175 174 171 175 178 182 186 189 192 187 180 172 168 166 163 161 162 162 165 165 163 158 150 148 146 141 134 132
163 165 173 175 177 177 176 180 183 189 192 192 188 183 176 171 171 171 170 170 171 174 178 180 178 172 167 167 175 186 194 199
165 166 178 178 179 181 181 184 187 192 191 186 183 180 175 174 176 178 179 182 184 188 191 194 198 196 194 197 204 216 227 227
167 166 180 182 183 185 185 187 186 189 189 184 181 179 179 179 182 186 192 198 200 203 203 206 211 214 219 218 221 230 241 248
172 174 177 185 188 190 190 190 189 190 190 189 186 185 186 188 193 199 206 212 215 218 224 227 226 231 236 250 256 249 249 258
177 181 180 183 186 188 194 196 194 195 194 194 194 195 197 201 206 213 217 219 224 228 234 243 254 251 255 254 258 268 273 269
180 184 187 187 190 188 194 200 201 203 203 202 202 203 203 200 208 206 226 229 234 236 236 243 238 251 257 261 275 269 272 267
184 186 190 192 196 191 196 200 199 203 203 207 211 212 206 210 221 221 224 236 240 244 251 253 257 256 249 245 249 254 258 263
187 192 195 200 206 203 200 206 206 206 207 207 211 219 214 219 222 215 220 225 233 233 240 244 246 246 254 267 264 260 263 261
194 197 200 202 213 215 212 211 208 212 215 213 211 222 222 221 223 227 228 228 235 240 244 246 253 254 263 268 266 266 265 265
204 206 208 215 222 223 224 218 216 215 215 210 216 219 228 227 226 226 234 236 239 244 245 248 253 254 260 258 260 263 267 266
214 212 215 223 229 233 233 232 225 220 216 218 217 221 229 231 231 227 226 227 232 240 246 249 253 259 261 262 263 261 265 265
208 216 213 218 226 238 238 235 223 223 223 219 218 222 230 224 222 224 225 233 231 237 245 250 253 257 261 262 263 259 260 265
223 219 219 223 229 238 240 230 225 223 220 219 218 219 226 223 222 223 228 232 239 246 248 250 254 256 262 267 268 271 265 264
228 225 225 227 228 230 230 231 223 224 223 219 220 215 221 222 229 236 238 241 250 250 254 258 256 257 261 263 266 268 269 267
226 224 227 223 225 227 224 217 218 219 218 217 214 214 217 228 236 237 238 248 250 249 256 255 267 274 269 269 273 273 274 272
226 230 226 222 227 229 227 218 208 208 212 209 205 212 216 228 231 231 229 233 239 249 271 271 272 273 271 267 264 274 276 274
226 232 224 219 225 228 217 218 223 192 189 192 199 208 220 227 228 221 243 248 269 271 264 275 277 273 276 272 274 263 277 273
229 229 221 220 227 228 226 219 218 212 194 198 203 201 221 217 218 237 254 263 270 258 261 277 283 273 273 275 273 271 264 267